START_TIME,STEP,MOV.,M34,t_acc.,L5,t_acc.,L18,t_acc.,L14,t_acc.
1979-07-28 21:00:23.860 ,0,0,0.,12.0,0.,12.0,0.,12.0,0.,12.0
1979-07-28 21:00:35.860 ,0,0,0.,12.0,0.,12.0,0.,12.0,0.,12.0
1979-07-28 21:00:47.860 ,0,1,0.,12.0,0.,12.0,0.,12.0,0.,12.0
1979-07-28 21:00:59.860 ,0,1,0.,12.0,0.,12.0,0.,12.0,0.,12.0
1979-07-28 21:01:11.860 ,0,0,0.,12.0,0.,12.0,0.,12.0,0.,12.0
1979-07-28 21:01:23.860 ,0,0,0.,12.0,0.,12.0,0.,12.0,0.,12.0
1979-07-28 21:01:35.860 ,1,1,0.,12.0,0.,12.0,0.,12.0,0.,12.0
1979-07-28 21:01:47.860 ,1,1,0.,12.0,0.,12.0,0.,12.0,0.,12.0
1979-07-28 21:01:59.860 ,1,0,0.,12.0,0.,12.0,0.,12.0,0.,12.0
1979-07-28 21:02:11.860 ,1,0,0.,12.0,0.,12.0,0.,12.0,0.,12.0
1979-07-28 21:02:23.860 ,2,1,0.,12.0,0.,12.0,0.,12.0,0.,12.0
1979-07-28 21:02:35.860 ,2,1,0.,12.0,0.,12.0,0.,12.0,0.,12.0
1979-07-28 21:02:47.860 ,2,0,0.,12.0,0.,12.0,0.,12.0,0.,12.0
1979-07-28 21:02:59.860 ,2,0,0.,12.0,0.,12.0,0.,12.0,0.,12.0
1979-07-28 21:03:11.860 ,3,1,0.,12.0,0.,12.0,0.,12.0,0.,12.0
1979-07-28 21:03:23.860 ,3,1,0.,12.0,0.,12.0,0.,12.0,0.,12.0
1979-07-28 21:03:35.860 ,3,0,0.,12.0,0.,12.0,0.,12.0,0.,12.0
1979-07-28 21:03:47.860 ,3,0,0.,12.0,0.,12.0,0.,12.0,0.,12.0
1979-07-28 21:03:59.860 ,4,1,0.,12.0,0.,12.0,0.,12.0,0.,12.0
1979-07-28 21:04:11.860 ,4,1,0.,12.0,0.,12.0,0.,12.0,0.,12.0
1979-07-28 21:04:23.860 ,4,0,0.,12.0,0.,12.0,0.,12.0,0.,12.0
1979-07-28 21:04:35.860 ,4,0,0.,12.0,0.,12.0,0.,12.0,0.,12.0
1979-07-28 21:04:47.860 ,5,1,0.,12.0,0.,12.0,0.,12.0,0.,12.0
1979-07-28 21:04:59.860 ,5,1,0.,12.0,0.,12.0,0.,12.0,0.,12.0
1979-07-28 21:05:11.860 ,5,0,0.,12.0,0.,12.0,0.,12.0,0.,12.0
1979-07-28 21:05:23.860 ,5,0,0.,12.0,0.,12.0,0.,12.0,0.,12.0
1979-07-28 21:05:35.860 ,6,1,0.,12.0,0.,12.0,0.,12.0,0.,12.0
1979-07-28 21:05:47.860 ,6,1,0.,12.0,0.,12.0,0.,12.0,0.,12.0
1979-07-28 21:05:59.860 ,6,0,0.,12.0,0.,12.0,0.,12.0,0.,12.0
1979-07-28 21:06:11.860 ,6,0,0.,12.0,0.,12.0,0.,12.0,0.,12.0
1979-07-28 21:06:23.860 ,7,0,0.,12.0,0.,12.0,0.,12.0,0.,12.0
1979-07-28 21:06:35.860 ,7,0,0.,12.0,0.,12.0,0.,12.0,0.,12.0
1979-07-28 21:06:47.860 ,7,0,0.,12.0,0.,12.0,0.,12.0,0.,12.0
1979-07-28 21:06:59.860 ,7,0,0.,12.0,0.,12.0,0.,12.0,0.,12.0
1979-07-28 21:07:11.860 ,4,1,0.,12.0,0.,12.0,0.,12.0,0.,12.0
1979-07-28 21:07:23.860 ,4,1,0.,12.0,0.,12.0,0.,12.0,0.,12.0
1979-07-28 21:07:35.860 ,0,1,0.,12.0,0.,12.0,0.,12.0,0.,12.0
1979-07-28 21:07:47.860 ,0,1,0.,12.0,0.,12.0,0.,12.0,0.,12.0
1979-07-28 21:07:59.860 ,3,1,0.,12.0,0.,12.0,0.,12.0,0.,12.0
1979-07-28 21:08:11.860 ,3,1,0.,12.0,0.,12.0,0.,12.0,0.,12.0
1979-07-28 21:08:23.860 ,7,1,0.,12.0,0.,12.0,0.,12.0,0.,12.0
1979-07-28 21:08:35.860 ,7,1,0.,12.0,0.,12.0,0.,12.0,0.,12.0
1979-07-28 21:08:47.860 ,4,1,0.,12.0,0.,12.0,0.,12.0,0.,12.0
1979-07-28 21:08:59.860 ,4,1,0.,12.0,0.,12.0,0.,12.0,0.,12.0
1979-07-28 21:09:11.860 ,0,1,0.,12.0,0.,12.0,0.,12.0,0.,12.0
1979-07-28 21:09:23.860 ,0,1,0.,12.0,0.,12.0,0.,12.0,0.,12.0
1979-07-28 21:09:35.860 ,3,1,0.,12.0,0.,12.0,0.,12.0,0.,12.0
1979-07-28 21:09:47.860 ,3,1,0.,12.0,0.,12.0,0.,12.0,0.,12.0
1979-07-28 21:09:59.860 ,7,1,0.,12.0,0.,12.0,0.,12.0,0.,12.0
1979-07-28 21:10:11.860 ,7,1,0.,12.0,0.,12.0,0.,12.0,0.,12.0
1979-07-28 21:10:23.860 ,4,1,0.,12.0,0.,12.0,0.,12.0,0.,12.0
1979-07-28 21:10:35.860 ,4,1,0.,12.0,0.,12.0,0.,12.0,0.,12.0
1979-07-28 21:10:47.860 ,0,1,0.,12.0,0.,12.0,0.,12.0,0.,12.0
1979-07-28 21:10:59.860 ,0,1,0.,12.0,0.,12.0,0.,12.0,0.,12.0
1979-07-28 21:11:11.860 ,3,1,0.,12.0,0.,12.0,0.,12.0,0.,12.0
1979-07-28 21:11:23.860 ,3,1,0.,12.0,0.,12.0,0.,12.0,0.,12.0
1979-07-28 21:11:35.860 ,7,1,0.,12.0,0.,12.0,0.,12.0,0.,12.0
1979-07-28 21:11:47.860 ,7,1,0.,12.0,0.,12.0,0.,12.0,0.,12.0
1979-07-28 21:11:59.860 ,4,1,0.,12.0,0.,12.0,0.,12.0,0.,12.0
1979-07-28 21:12:11.860 ,4,1,0.,12.0,0.,12.0,0.,12.0,0.,12.0
1979-07-28 21:12:23.860 ,0,1,0.,12.0,0.,12.0,0.,12.0,0.,12.0
1979-07-28 21:12:35.860 ,0,1,0.,12.0,0.,12.0,0.,12.0,0.,12.0
1979-07-28 21:12:47.860 ,3,1,0.,12.0,0.,12.0,0.,12.0,0.,12.0
1979-07-28 21:12:59.860 ,3,1,0.,12.0,0.,12.0,0.,12.0,0.,12.0
1979-07-28 21:13:11.860 ,7,1,0.,12.0,0.,12.0,0.,12.0,0.,12.0
1979-07-28 21:13:23.860 ,7,1,0.,12.0,0.,12.0,0.,12.0,0.,12.0
1979-07-28 21:13:35.860 ,4,1,0.,12.0,0.,12.0,0.,12.0,0.,12.0
1979-07-28 21:13:47.860 ,4,1,0.,12.0,0.,12.0,0.,12.0,0.,12.0
1979-07-28 21:13:59.860 ,0,1,0.,12.0,0.,12.0,0.,12.0,0.,12.0
1979-07-28 21:14:11.860 ,0,1,0.,12.0,0.,12.0,0.,12.0,0.,12.0
1979-07-28 21:14:23.860 ,0,0,0.,12.0,0.,12.0,0.,12.0,0.,12.0
1979-07-28 21:14:35.860 ,0,0,0.,12.0,0.,12.0,0.,12.0,0.,12.0
1979-07-28 21:14:47.860 ,0,0,0.,12.0,0.,12.0,0.,12.0,0.,12.0
1979-07-28 21:14:59.860 ,0,0,0.,12.0,0.,12.0,0.,12.0,0.,12.0
1979-07-28 21:15:11.860 ,4,1,0.,12.0,0.,12.0,0.,12.0,0.,12.0
1979-07-28 21:15:23.860 ,4,1,0.,12.0,0.,12.0,0.,12.0,0.,12.0
1979-07-28 21:15:35.860 ,0,1,0.,12.0,0.,12.0,0.,12.0,0.,12.0
1979-07-28 21:15:47.860 ,0,1,0.,12.0,0.,12.0,0.,12.0,0.,12.0
1979-07-28 21:15:59.860 ,3,1,0.,12.0,0.,12.0,0.,12.0,0.,12.0
1979-07-28 21:16:11.860 ,3,1,0.,12.0,0.,12.0,0.,12.0,0.,12.0
1979-07-28 21:16:23.860 ,7,1,0.,12.0,0.,12.0,0.,12.0,0.,12.0
1979-07-28 21:16:35.860 ,7,1,0.,12.0,0.,12.0,0.,12.0,0.,12.0
1979-07-28 21:16:47.860 ,4,1,0.,12.0,0.,12.0,0.,12.0,0.,12.0
1979-07-28 21:16:59.860 ,4,1,0.,12.0,0.,12.0,0.,12.0,0.,12.0
1979-07-28 21:17:11.860 ,0,1,0.,12.0,0.,12.0,0.,12.0,0.,12.0
1979-07-28 21:17:23.860 ,0,1,0.,12.0,0.,12.0,0.,12.0,0.,12.0
1979-07-28 21:17:35.860 ,0,0,0.,12.0,0.,12.0,0.,12.0,0.,12.0
1979-07-28 21:17:47.860 ,0,0,0.,12.0,0.,12.0,0.,12.0,0.,12.0
1979-07-28 21:17:59.860 ,0,0,0.,12.0,0.,12.0,0.,12.0,0.,12.0
1979-07-28 21:18:11.860 ,0,0,0.,12.0,0.,12.0,0.,12.0,0.,12.0
1979-07-28 21:18:23.860 ,5,1,0.,12.0,0.,12.0,0.,12.0,0.,12.0
1979-07-28 21:18:35.860 ,5,1,0.,12.0,0.,12.0,0.,12.0,0.,12.0
1979-07-28 21:18:47.860 ,5,0,0.,12.0,0.,12.0,0.,12.0,0.,12.0
1979-07-28 21:18:59.860 ,5,0,0.,12.0,0.,12.0,0.,12.0,0.,12.0
1979-07-28 21:19:11.860 ,4,1,0.,12.0,0.,12.0,0.,12.0,0.,12.0
1979-07-28 21:19:23.860 ,4,1,0.,12.0,0.,12.0,0.,12.0,0.,12.0
1979-07-28 21:19:35.860 ,4,0,0.,12.0,0.,12.0,0.,12.0,0.,12.0
1979-07-28 21:19:47.860 ,4,0,0.,12.0,0.,12.0,0.,12.0,0.,12.0
1979-07-28 21:19:59.860 ,3,1,0.,12.0,0.,12.0,0.,12.0,0.,12.0
1979-07-28 21:20:11.860 ,3,1,0.,12.0,0.,12.0,0.,12.0,0.,12.0
1979-07-28 21:20:23.860 ,3,0,0.,12.0,0.,12.0,0.,12.0,0.,12.0
1979-07-28 21:20:35.860 ,3,0,0.,12.0,0.,12.0,0.,12.0,0.,12.0
1979-07-28 21:20:47.860 ,2,1,0.,12.0,0.,12.0,0.,12.0,0.,12.0
1979-07-28 21:20:59.860 ,2,1,0.,12.0,0.,12.0,0.,12.0,0.,12.0
1979-07-28 21:21:11.860 ,2,0,0.,12.0,0.,12.0,0.,12.0,0.,12.0
1979-07-28 21:21:23.860 ,2,0,0.,12.0,0.,12.0,0.,12.0,0.,12.0
1979-07-28 21:21:35.860 ,1,1,0.,12.0,0.,12.0,0.,12.0,0.,12.0
1979-07-28 21:21:47.860 ,1,1,0.,12.0,0.,12.0,0.,12.0,0.,12.0
1979-07-28 21:21:59.860 ,1,0,0.,12.0,0.,12.0,0.,12.0,0.,12.0
1979-07-28 21:22:11.860 ,1,0,0.,12.0,0.,12.0,0.,12.0,0.,12.0
1979-07-28 21:22:23.860 ,0,1,0.,12.0,0.,12.0,0.,12.0,0.,12.0
1979-07-28 21:22:35.860 ,0,1,0.,12.0,0.,12.0,0.,12.0,0.,12.0
1979-07-28 21:22:47.860 ,0,0,0.,12.0,0.,12.0,0.,12.0,0.,12.0
1979-07-28 21:22:59.860 ,0,0,0.,12.0,0.,12.0,0.,12.0,0.,12.0
1979-07-28 21:23:11.860 ,0,1,0.,12.0,0.,12.0,0.,12.0,0.,12.0
1979-07-28 21:23:23.860 ,0,1,0.,12.0,0.,12.0,0.,12.0,0.,12.0
1979-07-28 21:23:35.860 ,0,0,0.,12.0,0.,12.0,0.,12.0,0.,12.0
1979-07-28 21:23:47.860 ,0,0,0.,12.0,0.,12.0,0.,12.0,0.,12.0
1979-07-28 21:23:59.860 ,1,1,0.,12.0,0.,12.0,0.,12.0,0.,12.0
1979-07-28 21:24:11.860 ,1,1,0.,12.0,0.,12.0,0.,12.0,0.,12.0
1979-07-28 21:24:23.860 ,1,0,0.,12.0,0.,12.0,0.,12.0,0.,12.0
1979-07-28 21:24:35.860 ,1,0,0.,12.0,0.,12.0,0.,12.0,0.,12.0
1979-07-28 21:24:47.860 ,2,1,0.,12.0,0.,12.0,0.,12.0,0.,12.0
1979-07-28 21:24:59.860 ,2,1,0.,12.0,0.,12.0,0.,12.0,0.,12.0
1979-07-28 21:25:11.860 ,2,0,0.,12.0,0.,12.0,0.,12.0,0.,12.0
1979-07-28 21:25:23.860 ,2,0,0.,12.0,0.,12.0,0.,12.0,0.,12.0
1979-07-28 21:25:35.860 ,3,1,0.,12.0,0.,12.0,0.,12.0,0.,12.0
1979-07-28 21:25:47.860 ,3,1,0.,12.0,0.,12.0,0.,12.0,0.,12.0
1979-07-28 21:25:59.860 ,3,0,0.,12.0,0.,12.0,0.,12.0,0.,12.0
1979-07-28 21:26:11.860 ,3,0,0.,12.0,0.,12.0,0.,12.0,0.,12.0
1979-07-28 21:26:23.860 ,4,1,0.,12.0,0.,12.0,0.,12.0,0.,12.0
1979-07-28 21:26:35.860 ,4,1,0.,12.0,0.,12.0,0.,12.0,0.,12.0
1979-07-28 21:26:47.860 ,4,0,0.,12.0,0.,12.0,0.,12.0,0.,12.0
1979-07-28 21:26:59.860 ,4,0,0.,12.0,0.,12.0,0.,12.0,0.,12.0
1979-07-28 21:27:11.860 ,5,1,0.,12.0,0.,12.0,0.,12.0,0.,12.0
1979-07-28 21:27:23.860 ,5,1,0.,12.0,0.,12.0,0.,12.0,0.,12.0
1979-07-28 21:27:35.860 ,5,0,0.,12.0,0.,12.0,0.,12.0,0.,12.0
1979-07-28 21:27:47.860 ,5,0,0.,12.0,0.,12.0,0.,12.0,0.,12.0
1979-07-28 21:27:59.860 ,6,1,0.,12.0,0.,12.0,0.,12.0,0.,12.0
1979-07-28 21:28:11.860 ,6,1,0.,12.0,0.,12.0,0.,12.0,0.,12.0
1979-07-28 21:28:23.860 ,6,0,0.,12.0,0.,12.0,0.,12.0,0.,12.0
1979-07-28 21:28:35.860 ,6,0,0.,12.0,0.,12.0,0.,12.0,0.,12.0
1979-07-28 21:28:47.860 ,7,1,0.,12.0,0.,12.0,0.,12.0,0.,12.0
1979-07-28 21:28:59.860 ,7,1,0.,12.0,0.,12.0,0.,12.0,0.,12.0
1979-07-28 21:29:11.860 ,7,0,0.,12.0,0.,12.0,0.,12.0,0.,12.0
1979-07-28 21:29:23.860 ,7,0,0.,12.0,0.,12.0,0.,12.0,0.,12.0
1979-07-28 21:29:35.860 ,7,1,0.,12.0,0.,12.0,0.,12.0,0.,12.0
1979-07-28 21:29:47.860 ,7,1,0.,12.0,0.,12.0,0.,12.0,0.,12.0
1979-07-28 21:29:59.860 ,7,0,0.,12.0,0.,12.0,0.,12.0,0.,12.0
1979-07-28 21:30:11.860 ,7,0,0.,12.0,0.,12.0,0.,12.0,0.,12.0
1979-07-28 21:30:23.860 ,6,1,0.,12.0,0.,12.0,0.,12.0,0.,12.0
1979-07-28 21:30:35.860 ,6,1,0.,12.0,0.,12.0,0.,12.0,0.,12.0
1979-07-28 21:30:47.860 ,6,0,0.,12.0,0.,12.0,0.,12.0,0.,12.0
1979-07-28 21:30:59.860 ,6,0,0.,12.0,0.,12.0,0.,12.0,0.,12.0
1979-07-28 21:31:11.860 ,5,1,0.,12.0,0.,12.0,0.,12.0,0.,12.0
1979-07-28 21:31:23.860 ,5,1,0.,12.0,0.,12.0,0.,12.0,1.,12.0
1979-07-28 21:31:35.860 ,5,0,0.,12.0,0.,12.0,0.,12.0,0.,12.0
1979-07-28 21:31:47.860 ,5,0,0.,12.0,0.,12.0,0.,12.0,0.,12.0
1979-07-28 21:31:59.860 ,4,1,0.,12.0,0.,12.0,0.,12.0,0.,12.0
1979-07-28 21:32:11.860 ,4,1,0.,12.0,0.,12.0,0.,12.0,0.,12.0
1979-07-28 21:32:23.860 ,4,0,0.,12.0,0.,12.0,0.,12.0,0.,12.0
1979-07-28 21:32:35.860 ,4,0,0.,12.0,0.,12.0,0.,12.0,0.,12.0
1979-07-28 21:32:47.860 ,3,1,0.,12.0,0.,12.0,0.,12.0,0.,12.0
1979-07-28 21:32:59.860 ,3,1,0.,12.0,0.,12.0,0.,12.0,0.,12.0
1979-07-28 21:33:11.860 ,3,0,0.,12.0,0.,12.0,0.,12.0,0.,12.0
1979-07-28 21:33:23.860 ,3,0,0.,12.0,0.,12.0,0.,12.0,0.,12.0
1979-07-28 21:33:35.860 ,2,1,0.,12.0,0.,12.0,0.,12.0,0.,12.0
1979-07-28 21:33:47.860 ,2,1,0.,12.0,0.,12.0,0.,12.0,0.,12.0
1979-07-28 21:33:59.860 ,2,0,0.,12.0,0.,12.0,0.,12.0,0.,12.0
1979-07-28 21:34:11.860 ,2,0,0.,12.0,0.,12.0,0.,12.0,0.,12.0
1979-07-28 21:34:23.860 ,1,1,0.,12.0,0.,12.0,0.,12.0,0.,12.0
1979-07-28 21:34:35.860 ,1,1,0.,12.0,0.,12.0,0.,12.0,0.,12.0
1979-07-28 21:34:47.860 ,1,0,0.,12.0,0.,12.0,0.,12.0,0.,12.0
1979-07-28 21:34:59.860 ,1,0,0.,12.0,0.,12.0,0.,12.0,0.,12.0
1979-07-28 21:35:11.860 ,0,1,0.,12.0,0.,12.0,0.,12.0,0.,12.0
1979-07-28 21:35:23.860 ,0,1,0.,12.0,0.,12.0,0.,12.0,0.,12.0
1979-07-28 21:35:35.860 ,0,0,0.,12.0,0.,12.0,0.,12.0,0.,12.0
1979-07-28 21:35:47.860 ,0,0,0.,12.0,0.,12.0,0.,12.0,0.,12.0
1979-07-28 21:35:59.860 ,0,1,0.,12.0,0.,12.0,0.,12.0,0.,12.0
1979-07-28 21:36:11.860 ,0,1,0.,12.0,0.,12.0,0.,12.0,0.,12.0
1979-07-28 21:36:23.860 ,0,0,0.,12.0,0.,12.0,0.,12.0,0.,12.0
1979-07-28 21:36:35.860 ,0,0,0.,12.0,0.,12.0,0.,12.0,0.,12.0
1979-07-28 21:36:47.860 ,1,1,0.,12.0,0.,12.0,0.,12.0,0.,12.0
1979-07-28 21:36:59.860 ,1,1,0.,12.0,0.,12.0,0.,12.0,0.,12.0
1979-07-28 21:37:11.860 ,1,0,0.,12.0,0.,12.0,0.,12.0,0.,12.0
1979-07-28 21:37:23.860 ,1,0,0.,12.0,0.,12.0,0.,12.0,0.,12.0
1979-07-28 21:37:35.860 ,2,1,0.,12.0,0.,12.0,0.,12.0,0.,12.0
1979-07-28 21:37:47.860 ,2,1,0.,12.0,0.,12.0,0.,12.0,0.,12.0
1979-07-28 21:37:59.860 ,2,0,0.,12.0,0.,12.0,0.,12.0,0.,12.0
1979-07-28 21:38:11.860 ,2,0,0.,12.0,0.,12.0,0.,12.0,0.,12.0
1979-07-28 21:38:23.860 ,3,1,0.,12.0,0.,12.0,0.,12.0,0.,12.0
1979-07-28 21:38:35.860 ,3,1,0.,12.0,0.,12.0,0.,12.0,0.,12.0
1979-07-28 21:38:47.860 ,3,0,0.,12.0,0.,12.0,0.,12.0,0.,12.0
1979-07-28 21:38:59.860 ,3,0,0.,12.0,0.,12.0,0.,12.0,0.,12.0
1979-07-28 21:39:11.850 ,4,1,0.,12.0,0.,12.0,0.,12.0,0.,12.0
1979-07-28 21:39:23.850 ,4,1,0.,12.0,0.,12.0,0.,12.0,0.,12.0
1979-07-28 21:39:35.850 ,4,0,0.,12.0,0.,12.0,0.,12.0,0.,12.0
1979-07-28 21:39:47.850 ,4,0,0.,12.0,0.,12.0,0.,12.0,0.,12.0
1979-07-28 21:39:59.850 ,5,1,0.,12.0,0.,12.0,0.,12.0,0.,12.0
1979-07-28 21:40:11.850 ,5,1,0.,12.0,0.,12.0,0.,12.0,0.,12.0
1979-07-28 21:40:23.850 ,5,0,0.,12.0,0.,12.0,0.,12.0,0.,12.0
1979-07-28 21:40:35.850 ,5,0,0.,12.0,0.,12.0,0.,12.0,0.,12.0
1979-07-28 21:40:47.850 ,6,1,0.,12.0,0.,12.0,0.,12.0,0.,12.0
1979-07-28 21:40:59.850 ,6,1,0.,12.0,0.,12.0,0.,12.0,0.,12.0
1979-07-28 21:41:11.850 ,6,0,0.,12.0,0.,12.0,0.,12.0,0.,12.0
1979-07-28 21:41:23.850 ,6,0,0.,12.0,0.,12.0,0.,12.0,0.,12.0
1979-07-28 21:41:35.850 ,7,1,0.,12.0,0.,12.0,0.,12.0,0.,12.0
1979-07-28 21:41:47.850 ,7,1,0.,12.0,0.,12.0,0.,12.0,0.,12.0
1979-07-28 21:41:59.850 ,7,0,0.,12.0,0.,12.0,0.,12.0,0.,12.0
1979-07-28 21:42:11.850 ,7,0,0.,12.0,0.,12.0,0.,12.0,0.,12.0
1979-07-28 21:42:23.850 ,7,1,0.,12.0,0.,12.0,0.,12.0,0.,12.0
1979-07-28 21:42:35.850 ,7,1,0.,12.0,0.,12.0,0.,12.0,0.,12.0
1979-07-28 21:42:47.850 ,7,0,0.,12.0,0.,12.0,0.,12.0,0.,12.0
1979-07-28 21:42:59.850 ,7,0,0.,12.0,0.,12.0,0.,12.0,0.,12.0
1979-07-28 21:43:11.850 ,6,1,0.,12.0,0.,12.0,0.,12.0,0.,12.0
1979-07-28 21:43:23.850 ,6,1,0.,12.0,0.,12.0,0.,12.0,0.,12.0
1979-07-28 21:43:35.850 ,6,0,0.,12.0,0.,12.0,0.,12.0,0.,12.0
1979-07-28 21:43:47.850 ,6,0,0.,12.0,0.,12.0,0.,12.0,0.,12.0
1979-07-28 21:43:59.850 ,5,1,0.,12.0,0.,12.0,0.,12.0,0.,12.0
1979-07-28 21:44:11.850 ,5,1,0.,12.0,0.,12.0,0.,12.0,0.,12.0
1979-07-28 21:44:23.850 ,5,0,0.,12.0,0.,12.0,0.,12.0,0.,12.0
1979-07-28 21:44:35.850 ,5,0,0.,12.0,0.,12.0,0.,12.0,0.,12.0
1979-07-28 21:44:47.850 ,4,1,0.,12.0,0.,12.0,0.,12.0,0.,12.0
1979-07-28 21:44:59.850 ,4,1,0.,12.0,0.,12.0,0.,12.0,0.,12.0
1979-07-28 21:45:11.850 ,4,0,0.,12.0,0.,12.0,0.,12.0,0.,12.0
1979-07-28 21:45:23.850 ,4,0,0.,12.0,0.,12.0,0.,12.0,0.,12.0
1979-07-28 21:45:35.850 ,3,1,0.,12.0,0.,12.0,0.,12.0,1.,12.0
1979-07-28 21:45:47.850 ,3,1,0.,12.0,0.,12.0,0.,12.0,0.,12.0
1979-07-28 21:45:59.850 ,3,0,0.,12.0,0.,12.0,0.,12.0,0.,12.0
1979-07-28 21:46:11.850 ,3,0,0.,12.0,0.,12.0,0.,12.0,0.,12.0
1979-07-28 21:46:23.850 ,2,1,0.,12.0,0.,12.0,0.,12.0,0.,12.0
1979-07-28 21:46:35.850 ,2,1,0.,12.0,0.,12.0,0.,12.0,0.,12.0
1979-07-28 21:46:47.850 ,2,0,0.,12.0,0.,12.0,0.,12.0,0.,12.0
1979-07-28 21:46:59.850 ,2,0,0.,12.0,0.,12.0,0.,12.0,0.,12.0
1979-07-28 21:47:11.850 ,1,1,0.,12.0,0.,12.0,0.,12.0,0.,12.0
1979-07-28 21:47:23.850 ,1,1,0.,12.0,0.,12.0,0.,12.0,0.,12.0
1979-07-28 21:47:35.850 ,1,0,0.,12.0,0.,12.0,0.,12.0,0.,12.0
1979-07-28 21:47:47.850 ,1,0,0.,12.0,0.,12.0,0.,12.0,0.,12.0
1979-07-28 21:47:59.850 ,0,1,0.,12.0,0.,12.0,0.,12.0,0.,12.0
1979-07-28 21:48:11.850 ,0,1,0.,12.0,0.,12.0,0.,12.0,0.,12.0
1979-07-28 21:48:23.850 ,0,0,0.,12.0,0.,12.0,0.,12.0,0.,12.0
1979-07-28 21:48:35.850 ,0,0,0.,12.0,0.,12.0,0.,12.0,0.,12.0
1979-07-28 21:48:47.850 ,0,1,0.,12.0,0.,12.0,0.,12.0,0.,12.0
1979-07-28 21:48:59.850 ,0,1,0.,12.0,0.,12.0,0.,12.0,0.,12.0
1979-07-28 21:49:11.850 ,0,0,0.,12.0,0.,12.0,0.,12.0,0.,12.0
1979-07-28 21:49:23.850 ,0,0,0.,12.0,0.,12.0,0.,12.0,0.,12.0
1979-07-28 21:49:35.850 ,1,1,0.,12.0,0.,12.0,0.,12.0,0.,12.0
1979-07-28 21:49:47.850 ,1,1,0.,12.0,0.,12.0,0.,12.0,0.,12.0
1979-07-28 21:49:59.850 ,1,0,0.,12.0,0.,12.0,0.,12.0,0.,12.0
1979-07-28 21:50:11.850 ,1,0,0.,12.0,0.,12.0,0.,12.0,0.,12.0
1979-07-28 21:50:23.850 ,2,1,0.,12.0,0.,12.0,0.,12.0,0.,12.0
1979-07-28 21:50:35.850 ,2,1,0.,12.0,0.,12.0,0.,12.0,0.,12.0
1979-07-28 21:50:47.850 ,2,0,0.,12.0,0.,12.0,0.,12.0,0.,12.0
1979-07-28 21:50:59.850 ,2,0,0.,12.0,0.,12.0,0.,12.0,0.,12.0
1979-07-28 21:51:11.850 ,3,1,0.,12.0,0.,12.0,0.,12.0,0.,12.0
1979-07-28 21:51:23.850 ,3,1,0.,12.0,0.,12.0,0.,12.0,0.,12.0
1979-07-28 21:51:35.850 ,3,0,0.,12.0,0.,12.0,0.,12.0,0.,12.0
1979-07-28 21:51:47.850 ,3,0,0.,12.0,0.,12.0,0.,12.0,0.,12.0
1979-07-28 21:51:59.850 ,4,1,0.,12.0,0.,12.0,0.,12.0,0.,12.0
1979-07-28 21:52:11.850 ,4,1,0.,12.0,0.,12.0,0.,12.0,0.,12.0
1979-07-28 21:52:23.850 ,4,0,0.,12.0,0.,12.0,0.,12.0,0.,12.0
1979-07-28 21:52:35.850 ,4,0,0.,12.0,0.,12.0,0.,12.0,0.,12.0
1979-07-28 21:52:47.850 ,5,1,0.,12.0,0.,12.0,0.,12.0,0.,12.0
1979-07-28 21:52:59.850 ,5,1,0.,12.0,0.,12.0,0.,12.0,0.,12.0
1979-07-28 21:53:11.850 ,5,0,0.,12.0,0.,12.0,0.,12.0,0.,12.0
1979-07-28 21:53:23.850 ,5,0,0.,12.0,0.,12.0,0.,12.0,0.,12.0
1979-07-28 21:53:35.850 ,6,1,0.,12.0,0.,12.0,0.,12.0,0.,12.0
1979-07-28 21:53:47.850 ,6,1,0.,12.0,0.,12.0,0.,12.0,0.,12.0
1979-07-28 21:53:59.850 ,6,0,0.,12.0,0.,12.0,0.,12.0,0.,12.0
1979-07-28 21:54:11.850 ,6,0,0.,12.0,0.,12.0,0.,12.0,0.,12.0
1979-07-28 21:54:23.850 ,7,0,0.,12.0,0.,12.0,0.,12.0,0.,12.0
1979-07-28 21:54:35.850 ,7,0,0.,12.0,0.,12.0,0.,12.0,0.,12.0
1979-07-28 21:54:47.850 ,7,0,0.,12.0,0.,12.0,0.,12.0,0.,12.0
1979-07-28 21:54:59.850 ,7,0,0.,12.0,0.,12.0,0.,12.0,0.,12.0
1979-07-28 21:55:11.850 ,4,1,0.,12.0,0.,12.0,0.,12.0,0.,12.0
1979-07-28 21:55:23.850 ,4,1,0.,12.0,0.,12.0,0.,12.0,0.,12.0
1979-07-28 21:55:35.850 ,0,1,0.,12.0,0.,12.0,0.,12.0,0.,12.0
1979-07-28 21:55:47.850 ,0,1,0.,12.0,0.,12.0,0.,12.0,0.,12.0
1979-07-28 21:55:59.850 ,3,1,0.,12.0,0.,12.0,0.,12.0,0.,12.0
1979-07-28 21:56:11.850 ,3,1,0.,12.0,0.,12.0,0.,12.0,0.,12.0
1979-07-28 21:56:23.850 ,7,1,0.,12.0,0.,12.0,0.,12.0,0.,12.0
1979-07-28 21:56:35.850 ,7,1,0.,12.0,0.,12.0,0.,12.0,0.,12.0
1979-07-28 21:56:47.850 ,4,1,0.,12.0,0.,12.0,0.,12.0,0.,12.0
1979-07-28 21:56:59.850 ,4,1,0.,12.0,0.,12.0,0.,12.0,0.,12.0
1979-07-28 21:57:11.850 ,0,1,0.,12.0,0.,12.0,0.,12.0,0.,12.0
1979-07-28 21:57:23.850 ,0,1,0.,12.0,0.,12.0,0.,12.0,0.,12.0
1979-07-28 21:57:35.850 ,3,1,0.,12.0,0.,12.0,0.,12.0,0.,12.0
1979-07-28 21:57:47.850 ,3,1,0.,12.0,0.,12.0,0.,12.0,0.,12.0
1979-07-28 21:57:59.850 ,7,1,0.,12.0,0.,12.0,0.,12.0,0.,12.0
1979-07-28 21:58:11.850 ,7,1,0.,12.0,0.,12.0,0.,12.0,0.,12.0
1979-07-28 21:58:23.850 ,4,1,0.,12.0,0.,12.0,0.,12.0,0.,12.0
1979-07-28 21:58:35.850 ,4,1,0.,12.0,0.,12.0,0.,12.0,0.,12.0
1979-07-28 21:58:47.850 ,0,1,0.,12.0,0.,12.0,0.,12.0,0.,12.0
1979-07-28 21:58:59.850 ,0,1,0.,12.0,0.,12.0,0.,12.0,0.,12.0
1979-07-28 21:59:11.850 ,3,1,0.,12.0,0.,12.0,0.,12.0,0.,12.0
1979-07-28 21:59:23.850 ,3,1,0.,12.0,0.,12.0,0.,12.0,0.,12.0
1979-07-28 21:59:35.850 ,7,1,0.,12.0,0.,12.0,0.,12.0,0.,12.0
1979-07-28 21:59:47.850 ,7,1,0.,12.0,0.,12.0,0.,12.0,0.,12.0
1979-07-28 21:59:59.850 ,4,1,0.,12.0,0.,12.0,0.,12.0,0.,12.0
1979-07-28 22:00:11.850 ,4,1,0.,12.0,0.,12.0,0.,12.0,0.,12.0
1979-07-28 22:00:23.850 ,0,1,0.,12.0,0.,12.0,0.,12.0,0.,12.0
1979-07-28 22:00:35.850 ,0,1,0.,12.0,0.,12.0,0.,12.0,0.,12.0
1979-07-28 22:00:47.850 ,0,0,0.,12.0,0.,12.0,0.,12.0,0.,12.0
1979-07-28 22:00:59.850 ,0,0,0.,12.0,0.,12.0,0.,12.0,0.,12.0
1979-07-28 22:01:11.850 ,0,0,,0,,0,,0,,0
1979-07-28 22:01:23.850 ,0,0,,0,,0,,0,,0
1979-07-28 22:02:47.850 ,0,0,0.,12.0,0.,12.0,0.,12.0,0.,12.0
1979-07-28 22:02:59.850 ,0,0,0.,12.0,0.,12.0,0.,12.0,0.,12.0
1979-07-28 22:03:11.850 ,4,1,0.,12.0,0.,12.0,0.,12.0,0.,12.0
1979-07-28 22:03:23.850 ,4,1,0.,12.0,0.,12.0,0.,12.0,0.,12.0
1979-07-28 22:03:35.850 ,0,1,0.,12.0,0.,12.0,0.,12.0,0.,12.0
1979-07-28 22:03:47.850 ,0,1,0.,12.0,0.,12.0,0.,12.0,0.,12.0
1979-07-28 22:03:59.850 ,3,1,0.,12.0,0.,12.0,0.,12.0,0.,12.0
1979-07-28 22:04:11.850 ,3,1,0.,12.0,0.,12.0,0.,12.0,0.,12.0
1979-07-28 22:04:23.850 ,7,1,0.,12.0,0.,12.0,0.,12.0,0.,12.0
1979-07-28 22:04:35.850 ,7,1,0.,12.0,0.,12.0,0.,12.0,0.,12.0
1979-07-28 22:04:47.850 ,4,1,0.,12.0,0.,12.0,0.,12.0,0.,12.0
1979-07-28 22:04:59.850 ,4,1,0.,12.0,0.,12.0,0.,12.0,0.,12.0
1979-07-28 22:05:11.850 ,0,1,0.,12.0,0.,12.0,0.,12.0,0.,12.0
1979-07-28 22:05:23.850 ,0,1,0.,12.0,0.,12.0,0.,12.0,0.,12.0
1979-07-28 22:05:35.850 ,0,0,0.,12.0,0.,12.0,0.,12.0,0.,12.0
1979-07-28 22:05:47.850 ,0,0,0.,12.0,0.,12.0,0.,12.0,0.,12.0
1979-07-28 22:05:59.850 ,0,0,0.,12.0,0.,12.0,0.,12.0,0.,12.0
1979-07-28 22:06:11.850 ,0,0,0.,12.0,0.,12.0,0.,12.0,0.,12.0
1979-07-28 22:06:23.850 ,5,1,0.,12.0,0.,12.0,0.,12.0,0.,12.0
1979-07-28 22:06:35.850 ,5,1,0.,12.0,0.,12.0,0.,12.0,0.,12.0
1979-07-28 22:06:47.850 ,5,0,0.,12.0,0.,12.0,0.,12.0,0.,12.0
1979-07-28 22:06:59.850 ,5,0,0.,12.0,0.,12.0,0.,12.0,0.,12.0
1979-07-28 22:07:11.850 ,4,1,0.,12.0,0.,12.0,0.,12.0,0.,12.0
1979-07-28 22:07:23.850 ,4,1,0.,12.0,0.,12.0,0.,12.0,0.,12.0
1979-07-28 22:07:35.850 ,4,0,0.,12.0,0.,12.0,0.,12.0,0.,12.0
1979-07-28 22:07:47.850 ,4,0,0.,12.0,0.,12.0,0.,12.0,0.,12.0
1979-07-28 22:07:59.850 ,3,1,0.,12.0,0.,12.0,0.,12.0,0.,12.0
1979-07-28 22:08:11.850 ,3,1,0.,12.0,0.,12.0,0.,12.0,0.,12.0
1979-07-28 22:08:23.850 ,3,0,0.,12.0,0.,12.0,0.,12.0,0.,12.0
1979-07-28 22:08:35.850 ,3,0,0.,12.0,0.,12.0,0.,12.0,0.,12.0
1979-07-28 22:08:47.850 ,2,1,0.,12.0,0.,12.0,0.,12.0,0.,12.0
1979-07-28 22:08:59.850 ,2,1,0.,12.0,0.,12.0,0.,12.0,0.,12.0
1979-07-28 22:09:11.850 ,2,0,0.,12.0,0.,12.0,0.,12.0,0.,12.0
1979-07-28 22:09:23.850 ,2,0,0.,12.0,0.,12.0,0.,12.0,0.,12.0
1979-07-28 22:09:35.850 ,1,1,0.,12.0,0.,12.0,0.,12.0,0.,12.0
1979-07-28 22:09:47.850 ,1,1,0.,12.0,0.,12.0,0.,12.0,0.,12.0
1979-07-28 22:09:59.850 ,1,0,0.,12.0,0.,12.0,0.,12.0,0.,12.0
1979-07-28 22:10:11.850 ,1,0,0.,12.0,0.,12.0,0.,12.0,0.,12.0
1979-07-28 22:10:23.850 ,0,1,0.,12.0,0.,12.0,0.,12.0,0.,12.0
1979-07-28 22:10:35.850 ,0,1,0.,12.0,0.,12.0,0.,12.0,0.,12.0
1979-07-28 22:10:47.850 ,0,0,0.,12.0,0.,12.0,0.,12.0,0.,12.0
1979-07-28 22:10:59.850 ,0,0,0.,12.0,0.,12.0,0.,12.0,0.,12.0
1979-07-28 22:11:11.850 ,0,1,0.,12.0,0.,12.0,0.,12.0,0.,12.0
1979-07-28 22:11:23.850 ,0,1,0.,12.0,0.,12.0,0.,12.0,0.,12.0
1979-07-28 22:11:35.850 ,0,0,0.,12.0,0.,12.0,0.,12.0,0.,12.0
1979-07-28 22:11:47.850 ,0,0,0.,12.0,0.,12.0,0.,12.0,0.,12.0
1979-07-28 22:11:59.850 ,1,1,0.,12.0,0.,12.0,0.,12.0,0.,12.0
1979-07-28 22:12:11.850 ,1,1,0.,12.0,0.,12.0,0.,12.0,0.,12.0
1979-07-28 22:12:23.850 ,1,0,0.,12.0,0.,12.0,0.,12.0,0.,12.0
1979-07-28 22:12:35.850 ,1,0,0.,12.0,0.,12.0,0.,12.0,0.,12.0
1979-07-28 22:12:47.850 ,2,1,0.,12.0,0.,12.0,0.,12.0,0.,12.0
1979-07-28 22:12:59.850 ,2,1,0.,12.0,0.,12.0,0.,12.0,0.,12.0
1979-07-28 22:13:11.850 ,2,0,0.,12.0,0.,12.0,0.,12.0,0.,12.0
1979-07-28 22:13:23.850 ,2,0,0.,12.0,0.,12.0,0.,12.0,0.,12.0
1979-07-28 22:13:35.850 ,3,1,0.,12.0,0.,12.0,0.,12.0,0.,12.0
1979-07-28 22:13:47.850 ,3,1,0.,12.0,0.,12.0,0.,12.0,0.,12.0
1979-07-28 22:13:59.850 ,3,0,0.,12.0,0.,12.0,0.,12.0,0.,12.0
1979-07-28 22:14:11.850 ,3,0,0.,12.0,0.,12.0,0.,12.0,0.,12.0
1979-07-28 22:14:23.850 ,4,1,0.,12.0,0.,12.0,0.,12.0,0.,12.0
1979-07-28 22:14:35.850 ,4,1,0.,12.0,0.,12.0,0.,12.0,0.,12.0
1979-07-28 22:14:47.850 ,4,0,0.,12.0,0.,12.0,0.,12.0,0.,12.0
1979-07-28 22:14:59.850 ,4,0,0.,12.0,0.,12.0,0.,12.0,0.,12.0
1979-07-28 22:15:11.850 ,5,1,0.,12.0,0.,12.0,0.,12.0,0.,12.0
1979-07-28 22:15:23.850 ,5,1,0.,12.0,0.,12.0,0.,12.0,0.,12.0
1979-07-28 22:15:35.850 ,5,0,0.,12.0,0.,12.0,0.,12.0,0.,12.0
1979-07-28 22:15:47.850 ,5,0,0.,12.0,0.,12.0,0.,12.0,0.,12.0
1979-07-28 22:15:59.850 ,6,1,0.,12.0,0.,12.0,0.,12.0,0.,12.0
1979-07-28 22:16:11.850 ,6,1,0.,12.0,0.,12.0,0.,12.0,0.,12.0
1979-07-28 22:16:23.850 ,6,0,0.,12.0,0.,12.0,0.,12.0,0.,12.0
1979-07-28 22:16:35.850 ,6,0,0.,12.0,0.,12.0,0.,12.0,0.,12.0
1979-07-28 22:16:47.850 ,7,1,0.,12.0,0.,12.0,0.,12.0,0.,12.0
1979-07-28 22:16:59.850 ,7,1,0.,12.0,0.,12.0,0.,12.0,0.,12.0
1979-07-28 22:17:11.850 ,7,0,0.,12.0,0.,12.0,0.,12.0,0.,12.0
1979-07-28 22:17:23.850 ,7,0,0.,12.0,0.,12.0,0.,12.0,0.,12.0
1979-07-28 22:17:35.850 ,7,1,0.,12.0,0.,12.0,0.,12.0,0.,12.0
1979-07-28 22:17:47.850 ,7,1,0.,12.0,0.,12.0,0.,12.0,0.,12.0
1979-07-28 22:17:59.850 ,7,0,0.,12.0,0.,12.0,0.,12.0,0.,12.0
1979-07-28 22:18:11.850 ,7,0,0.,12.0,0.,12.0,0.,12.0,0.,12.0
1979-07-28 22:18:23.850 ,6,1,0.,12.0,0.,12.0,0.,12.0,0.,12.0
1979-07-28 22:18:35.850 ,6,1,0.,12.0,0.,12.0,0.,12.0,0.,12.0